Home > Weather > Prince Rupert > Past weeks

Flag for Canada Weather for the Past 2 Weeks in Prince Rupert, British Columbia, Canada

Now
45 °F

Light rain. Overcast.


Feels Like: 39 °F
Forecast: 42 / 46 °F
Wind: 10 mph from Southeast

Location: Prince Rupert

Current Time: Feb 12, 2016 at 11:00:01 PM

Latest Report: Feb 12, 2016 at 10:02 PM


Visibility: 9 mi

Pressure: 29.85 "Hg

Humidity: 93%

Dew point: 43 °F

Location of Prince RupertLocation

Historic Weather in Prince Rupert — Graph

°F

Prince Rupert Temperature Yesterday

Maximum temperature yesterday: 55 °F (at 5:00 PM)
Minimum temperature yesterday: 46 °F (at 4:00 AM)
Average temperature yesterday: 51 °F

High & Low Weather Summary for the Past Weeks

 TemperatureHumidityPressure
High55 °F (Feb 9, 4:00 PM)100% (Jan 29, 2:57 AM)30.30 "Hg (Jan 29, 2:57 AM)
Low34 °F (Jan 30, 1:01 AM)36% (Feb 11, 5:00 PM)29.38 "Hg (Jan 29, 4:00 PM)
Average44 °F86%29.89 "Hg
* Reported Jan 28 9:00 PM — Feb 12 9:00 PM, Prince Rupert, Weather by CustomWeather, © 2016

Note: Actual official high and low records may vary slightly from our data, if they occured in-between our weather recording intervals... More about our weather records

Advertising

Prince Rupert Weather History for the Previous 24 Hours

 ConditionsComfort  
Time TempWeatherWind HumidityBarometerVisibility
9:00 PM
Fri, Feb 12
45 °FLight rain. Overcast.9 mph93%29.84 "Hg9 mi
8:00 PM45 °FLight rain. Mostly cloudy.10 mph93%29.83 "Hg7 mi
7:03 PM46 °FLight rain. Mostly cloudy.5 mph82%29.81 "Hg9 mi
6:00 PM46 °FPassing clouds.5 mph82%29.80 "Hg9 mi
5:00 PM48 °FPartly sunny.10 mph76%29.81 "Hg9 mi
4:00 PM48 °FPassing clouds.10 mph76%29.81 "Hg9 mi
3:00 PM50 °FPassing clouds.12 mph76%29.82 "Hg9 mi
2:00 PM52 °FSunny.10 mph72%29.82 "Hg9 mi
1:00 PM50 °FPassing clouds.12 mph82%29.83 "Hg9 mi
12:00 PM48 °FPartly sunny.10 mph87%29.83 "Hg9 mi
11:00 AM48 °FOvercast.3 mph87%29.82 "Hg9 mi
10:00 AM46 °FScattered clouds.2 mph93%29.82 "Hg9 mi
9:00 AM46 °FOvercast.6 mph87%29.81 "Hg9 mi
8:00 AM46 °FOvercast.6 mph93%29.80 "Hg9 mi
7:00 AM46 °FMostly cloudy.7 mph93%29.79 "Hg9 mi
6:00 AM46 °FMostly cloudy.6 mph93%29.78 "Hg9 mi
5:04 AM46 °FRain. Fog.7 mph93%29.75 "Hg2 mi
4:02 AM48 °FLight rain. Fog.9 mph94%29.70 "Hg6 mi
3:00 AM46 °FRain. Fog.5 mph93%29.70 "Hg4 mi
2:00 AM46 °FLight rain. Overcast.9 mph93%29.70 "Hg7 mi
1:00 AM46 °FLight rain. Overcast.6 mph93%29.70 "Hg9 mi
12:00 AM46 °FLight rain. Fog.10 mph87%29.71 "Hg4 mi
11:00 PM
Thu, Feb 11
54 °FMostly cloudy.17 mph58%29.69 "Hg9 mi
Weather by CustomWeather, © 2016

See weather overviewHow to use our weather pages